Location: Unspecified
(0.0000°N, 0.0000°E)
Time: 08:11:49
(UTC+02:00)

CZ-4B R/B - Visible Passes

Search period start: 30 August 2014 00:00
Search period end: 09 September 2014 00:00
Orbit: 494 x 676 km, 97.6° (Epoch: 29 August)

Date Brightness Start Highest point End Pass type
(mag) Time Alt. Az. Time Alt. Az. Time Alt. Az.
01 Sep 6.0 05:42:05 10° NNE 05:42:10 10° NNE 05:42:10 10° NNE visible
02 Sep 5.9 05:48:34 10° NNE 05:48:45 11° NNE 05:48:45 11° NNE visible
03 Sep 5.8 05:55:06 10° N 05:55:21 11° N 05:55:21 11° N visible
04 Sep 5.7 06:01:40 10° N 06:01:56 12° N 06:01:56 12° N visible
05 Sep 5.7 06:08:16 10° N 06:08:30 11° N 06:08:30 11° N visible
06 Sep 5.7 06:14:55 10° N 06:15:03 11° N 06:15:03 11° N visible
07 Sep 5.7 06:21:36 10° NNW 06:21:36 10° NNW 06:21:36 10° NNW visible
